Weather History for Jefferson, NC

Change the Weather History Date:

Sunday, January 2, 2011

  Actual Average Record
Temperature  
Mean Temperature 39 °F -  
Max Temperature 50 °F 44 °F 62 °F (2005)
Min Temperature 28 °F 24 °F 9 °F (1977)
Degree Days  
Heating Degree Days 26    
Moisture  
Dew Point 36 °F    
Average Humidity 82    
Maximum Humidity 100    
Minimum Humidity 55    
Precipitation  
Precipitation 0.01 in - - ()
Sea Level Pressure  
Sea Level Pressure 30.01 in    
Wind  
Wind Speed 7 mph (WNW)    
Max Wind Speed 24 mph    
Max Gust Speed 37 mph    
Visibility 9 miles    
Events      
Averages and records for this station are not official NWS values.
T = Trace of Precipitation, MM = Missing Value Source: NWS Daily Summary

Daily Weather History Graph

Daily Weather History Graph

Search for Another Location

Airport:

Trip Planner

Search our weather history database for the weather conditions in past years. The results will help you decide how hot, cold, wet, or windy it might be!

Date:

Astronomy

Jan. 02, 2011 Rise Set
Actual Time 7:37 AM EST 5:21 PM EST
Civil Twilight 7:08 AM EST 5:50 PM EST
Nautical Twilight 6:36 AM EST 6:22 PM EST
Astronomical Twilight 6:05 AM EST 6:54 PM EST
Moon 6:07 AM EST (1/2) 3:53 PM EST (1/2)
Length of Visible Light 10h 41m
Length of Day
9h 44m
Waning Crescent, 3% of the Moon is Illuminated
Jan 2
Waning Crescent
Jan 4
New
Jan 12
First Quarter
Jan 19
Full
Jan 26
Last Quarter

Hourly Weather History & Observations

Time (EST) Temp. Windchill Dew Point Humidity Pressure Visibility Wind Dir Wind Speed Gust Speed Precip Events Conditions
12:02 AM 50.0 °F - 50.0 °F 100% 30.02 in 5.0 mi SSE 4.6 mph 16.1 mph N/A   Overcast
12:22 AM 50.0 °F - 48.2 °F 94% 30.02 in 1.5 mi South 4.6 mph - N/A   Overcast
12:43 AM 50.0 °F - 48.2 °F 94% 30.00 in 2.5 mi SSE 4.6 mph - N/A   Overcast
1:02 AM 50.0 °F - 48.2 °F 94% 29.99 in 2.5 mi SSE 3.5 mph - N/A   Overcast
1:21 AM 50.0 °F - 48.2 °F 94% 29.99 in 2.5 mi SSE 4.6 mph - N/A   Overcast
1:41 AM 50.0 °F - 48.2 °F 94% 29.99 in 1.8 mi South 5.8 mph - N/A   Light Drizzle
2:01 AM 50.0 °F - 48.2 °F 94% 29.99 in 3.0 mi SSE 3.5 mph - N/A   Overcast
2:21 AM 50.0 °F - 48.2 °F 94% 30.00 in 10.0 mi SSW 4.6 mph - 0.01 in   Overcast
3:03 AM 50.0 °F - 48.2 °F 94% 30.00 in 10.0 mi WNW 8.1 mph - N/A   Overcast
3:21 AM 48.2 °F - 46.4 °F 93% 30.01 in 10.0 mi West 12.7 mph - N/A   Overcast
3:43 AM 48.2 °F - 44.6 °F 87% 30.00 in 10.0 mi NW 8.1 mph - N/A   Overcast
4:03 AM 46.4 °F 44.3 °F 44.6 °F 93% 30.00 in 10.0 mi West 4.6 mph - N/A   Overcast
4:21 AM 44.6 °F 41.4 °F 42.8 °F 93% 30.00 in 10.0 mi West 5.8 mph - N/A   Overcast
4:42 AM 44.6 °F - 42.8 °F 93% 30.00 in 10.0 mi Calm Calm - N/A   Overcast
5:01 AM 44.6 °F 43.1 °F 42.8 °F 93% 30.00 in 10.0 mi NNW 3.5 mph - N/A   Overcast
5:21 AM 42.8 °F 41.1 °F 41.0 °F 93% 29.99 in 10.0 mi NW 3.5 mph - N/A   Overcast
5:41 AM 42.8 °F - 41.0 °F 93% 29.99 in 10.0 mi Calm Calm - N/A   Overcast
6:01 AM 42.8 °F - 41.0 °F 93% 30.00 in 10.0 mi Calm Calm - N/A   Overcast
6:22 AM 42.8 °F - 41.0 °F 93% 30.00 in 10.0 mi Calm Calm - N/A   Overcast
6:43 AM 41.0 °F - 39.2 °F 93% 30.01 in 10.0 mi Calm Calm - N/A   Overcast
7:01 AM 41.0 °F 37.1 °F 39.2 °F 93% 30.01 in 10.0 mi NNW 5.8 mph - N/A   Overcast
7:22 AM 41.0 °F 38.0 °F 39.2 °F 93% 30.02 in 10.0 mi NNW 4.6 mph - N/A   Overcast
7:41 AM 41.0 °F 38.0 °F 39.2 °F 93% 30.01 in 10.0 mi North 4.6 mph - N/A   Overcast
8:04 AM 41.0 °F - 39.2 °F 93% 30.00 in 10.0 mi Calm Calm - N/A   Overcast
8:21 AM 41.0 °F 39.0 °F 39.2 °F 93% 30.00 in 10.0 mi NNE 3.5 mph - N/A   Overcast
8:41 AM 41.0 °F 38.0 °F 39.2 °F 93% 30.01 in 10.0 mi NW 4.6 mph - N/A   Overcast
9:01 AM 41.0 °F - 39.2 °F 93% 30.02 in 10.0 mi Calm Calm - N/A   Overcast
9:21 AM 41.0 °F - 39.2 °F 93% 30.02 in 10.0 mi Calm Calm - N/A   Overcast
9:41 AM 42.8 °F 40.1 °F 39.2 °F 87% 30.02 in 10.0 mi North 4.6 mph - N/A   Overcast
10:01 AM 42.8 °F 37.5 °F 39.2 °F 87% 30.02 in 10.0 mi West 9.2 mph - N/A   Overcast
10:21 AM 42.8 °F 37.5 °F 39.2 °F 87% 30.02 in 10.0 mi WNW 9.2 mph - N/A   Overcast
10:41 AM 42.8 °F 38.0 °F 37.4 °F 81% 30.02 in 10.0 mi West 8.1 mph - N/A   Overcast
11:21 AM 41.0 °F 34.3 °F 37.4 °F 87% 30.02 in 10.0 mi NW 11.5 mph 23.0 mph N/A   Overcast
11:43 AM 41.0 °F 34.7 °F 37.4 °F 87% 30.01 in 10.0 mi NW 10.4 mph - N/A   Overcast
12:21 PM 41.0 °F 34.3 °F 37.4 °F 87% 29.98 in 10.0 mi WNW 11.5 mph 18.4 mph N/A   Overcast
12:41 PM 41.0 °F 30.9 °F 35.6 °F 81% 29.97 in 10.0 mi WNW 24.2 mph 31.1 mph N/A   Mostly Cloudy
1:01 PM 41.0 °F 31.1 °F 35.6 °F 81% 29.97 in 10.0 mi WNW 23.0 mph 33.4 mph N/A   Scattered Clouds
1:21 PM 41.0 °F 32.5 °F 33.8 °F 76% 29.97 in 10.0 mi West 17.3 mph 28.8 mph N/A   Scattered Clouds
1:41 PM 41.0 °F 32.2 °F 32.0 °F 70% 29.97 in 10.0 mi WNW 18.4 mph 27.6 mph N/A   Scattered Clouds
2:01 PM 41.0 °F 32.8 °F 32.0 °F 70% 29.98 in 10.0 mi West 16.1 mph 28.8 mph N/A   Mostly Cloudy
2:21 PM 39.2 °F 29.3 °F 30.2 °F 70% 29.98 in 10.0 mi West 20.7 mph 34.5 mph N/A   Overcast
2:41 PM 39.2 °F 29.6 °F 30.2 °F 70% 29.98 in 10.0 mi WNW 19.6 mph 33.4 mph N/A   Overcast
3:01 PM 39.2 °F 29.0 °F 28.4 °F 65% 29.98 in 10.0 mi WNW 21.9 mph 32.2 mph N/A   Overcast
3:21 PM 37.4 °F 29.3 °F 26.6 °F 65% 30.00 in 10.0 mi WNW 12.7 mph 23.0 mph N/A   Mostly Cloudy
3:41 PM 37.4 °F 26.6 °F 24.8 °F 60% 30.00 in 10.0 mi West 21.9 mph 32.2 mph N/A   Scattered Clouds
4:01 PM 35.6 °F 27.5 °F 26.6 °F 70% 30.01 in 10.0 mi NW 11.5 mph 24.2 mph N/A   Mostly Cloudy
4:21 PM 35.6 °F 28.6 °F 23.0 °F 60% 30.02 in 10.0 mi NW 9.2 mph 27.6 mph N/A   Mostly Cloudy
4:41 PM 35.6 °F 25.9 °F 23.0 °F 60% 30.01 in 10.0 mi NW 16.1 mph 28.8 mph N/A   Scattered Clouds
5:01 PM 33.8 °F 23.2 °F 21.2 °F 60% 30.01 in 10.0 mi WNW 17.3 mph 32.2 mph N/A   Clear
5:21 PM 33.8 °F 22.8 °F 23.0 °F 65% 30.02 in 10.0 mi NW 18.4 mph 36.8 mph N/A   Clear
5:41 PM 32.0 °F 20.8 °F 21.2 °F 64% 30.03 in 10.0 mi NW 17.3 mph 23.0 mph N/A   Clear
6:01 PM 32.0 °F 20.1 °F 19.4 °F 60% 30.03 in 10.0 mi NW 19.6 mph 32.2 mph N/A   Clear
6:21 PM 30.2 °F 16.8 °F 19.4 °F 64% 30.04 in 10.0 mi WNW 23.0 mph 34.5 mph N/A   Clear
6:41 PM 30.2 °F 18.9 °F 17.6 °F 60% 30.04 in 10.0 mi WNW 16.1 mph 29.9 mph N/A   Clear
7:01 PM 28.4 °F 18.5 °F 17.6 °F 64% 30.06 in 10.0 mi NNW 11.5 mph - N/A   Clear
7:22 PM 28.4 °F 22.2 °F 14.0 °F 55% 30.07 in 10.0 mi NNW 5.8 mph 9.2 mph N/A   Clear
7:41 PM 28.4 °F 21.2 °F 8.6 °F 43% 30.06 in 10.0 mi NW 6.9 mph - N/A   Clear
8:03 PM 28.4 °F 21.2 °F 8.6 °F 43% 30.08 in 10.0 mi NNW 6.9 mph - N/A   Clear
8:21 PM 26.6 °F 21.2 °F 8.6 °F 47% 30.08 in 10.0 mi North 4.6 mph - N/A   Clear
8:44 PM 26.6 °F 15.7 °F 8.6 °F 47% 30.07 in 10.0 mi NNW 12.7 mph 16.1 mph N/A   Clear
9:01 PM 26.6 °F 16.8 °F 8.6 °F 47% 30.08 in 10.0 mi NW 10.4 mph 20.7 mph N/A   Clear
9:21 PM 24.8 °F 13.4 °F 8.6 °F 50% 30.08 in 10.0 mi NW 12.7 mph 19.6 mph N/A   Clear
9:41 PM 24.8 °F 16.1 °F 8.6 °F 50% 30.09 in 10.0 mi NW 8.1 mph 13.8 mph N/A   Clear
10:03 PM 24.8 °F 16.1 °F 10.4 °F 54% 30.09 in 10.0 mi NW 8.1 mph 19.6 mph N/A   Clear
10:21 PM 24.8 °F 19.1 °F 10.4 °F 54% 30.09 in 10.0 mi NW 4.6 mph - N/A   Clear
10:41 PM 24.8 °F 17.9 °F 10.4 °F 54% 30.09 in 10.0 mi WNW 5.8 mph - N/A   Clear
11:01 PM 24.8 °F 16.9 °F 10.4 °F 54% 30.10 in 10.0 mi NW 6.9 mph - N/A   Clear
11:21 PM 23.0 °F 13.9 °F 10.4 °F 59% 30.10 in 10.0 mi WNW 8.1 mph - N/A   Clear
11:41 PM 23.0 °F 13.9 °F 10.4 °F 59% 30.10 in 10.0 mi NW 8.1 mph 16.1 mph N/A   Clear